timestamp,wind_dir_avg,wind_spd_max_dir,wind_spd_avg,wind_spd_gust,battery_voltage,lat,long
2018-04-30 00:00:00+00:00,213.0,214.0,18.41,21.58,,47.59359,-54.27349
2018-04-30 00:10:00+00:00,212.0,202.0,19.25,22.65,,47.59359,-54.27349
2018-04-30 00:20:00+00:00,212.0,210.0,18.38,21.01,,47.59359,-54.27349
2018-04-30 00:30:00+00:00,209.0,214.0,18.38,21.61,,47.59359,-54.27349
2018-04-30 00:40:00+00:00,214.0,214.0,17.96,21.37,,47.59359,-54.27349
2018-04-30 00:50:00+00:00,217.0,219.0,18.93,21.4,,47.59359,-54.27349
2018-04-30 01:00:00+00:00,227.0,230.0,15.78,19.31,,47.59359,-54.27349
2018-04-30 01:10:00+00:00,236.0,232.0,10.86,12.61,,47.59359,-54.27349
2018-04-30 01:20:00+00:00,227.0,229.0,15.05,17.14,,47.59359,-54.27349
2018-04-30 01:30:00+00:00,230.0,231.0,14.5,17.92,,47.59359,-54.27349
2018-04-30 01:40:00+00:00,230.0,226.0,11.99,13.89,,47.59359,-54.27349
2018-04-30 01:50:00+00:00,231.0,233.0,13.99,15.41,,47.59359,-54.27349
2018-04-30 02:00:00+00:00,230.0,227.0,10.63,12.79,,47.59359,-54.27349
2018-04-30 02:10:00+00:00,233.0,234.0,10.77,12.6,,47.59359,-54.27349
2018-04-30 02:20:00+00:00,228.0,228.0,14.48,16.44,,47.59359,-54.27349
2018-04-30 02:30:00+00:00,230.0,236.0,11.11,12.8,,47.59359,-54.27349
2018-04-30 02:40:00+00:00,227.0,228.0,14.22,16.86,,47.59359,-54.27349
2018-04-30 02:50:00+00:00,231.0,228.0,12.51,14.26,,47.59359,-54.27349
2018-04-30 03:00:00+00:00,227.0,228.0,10.19,11.99,,47.59359,-54.27349
2018-04-30 03:10:00+00:00,227.0,230.0,11.91,13.02,,47.59359,-54.27349
2018-04-30 03:20:00+00:00,226.0,226.0,12.5,14.27,,47.59359,-54.27349
2018-04-30 03:30:00+00:00,224.0,225.0,12.83,14.37,,47.59359,-54.27349
2018-04-30 03:40:00+00:00,227.0,226.0,12.51,13.88,,47.59359,-54.27349
2018-04-30 03:50:00+00:00,227.0,226.0,12.05,14.12,,47.59359,-54.27349
2018-04-30 04:00:00+00:00,230.0,231.0,10.97,12.85,,47.59359,-54.27349
2018-04-30 04:10:00+00:00,226.0,227.0,10.19,11.94,,47.59359,-54.27349
2018-04-30 04:20:00+00:00,231.0,239.0,8.76,10.52,,47.59359,-54.27349
2018-04-30 04:30:00+00:00,232.0,235.0,8.97,10.32,,47.59359,-54.27349
2018-04-30 04:40:00+00:00,233.0,236.0,7.71,9.05,,47.59359,-54.27349
2018-04-30 04:50:00+00:00,234.0,236.0,8.87,10.07,,47.59359,-54.27349
2018-04-30 05:00:00+00:00,236.0,240.0,7.28,8.34,,47.59359,-54.27349
2018-04-30 05:10:00+00:00,239.0,240.0,6.17,7.03,,47.59359,-54.27349
2018-04-30 05:20:00+00:00,262.0,261.0,6.42,8.75,,47.59359,-54.27349
2018-04-30 05:30:00+00:00,292.0,290.0,8.02,9.42,,47.59359,-54.27349
2018-04-30 05:40:00+00:00,317.0,310.0,10.62,13.8,,47.59359,-54.27349
2018-04-30 05:50:00+00:00,324.0,323.0,9.05,10.31,,47.59359,-54.27349
2018-04-30 06:00:00+00:00,316.0,312.0,9.82,12.64,,47.59359,-54.27349
2018-04-30 06:10:00+00:00,335.0,338.0,11.02,12.82,,47.59359,-54.27349
2018-04-30 06:20:00+00:00,331.0,330.0,9.61,11.06,,47.59359,-54.27349
2018-04-30 06:30:00+00:00,331.0,330.0,12.79,15.73,,47.59359,-54.27349
2018-04-30 06:40:00+00:00,350.0,354.0,9.7,11.35,,47.59359,-54.27349
2018-04-30 06:50:00+00:00,353.0,357.0,7.68,8.45,,47.59359,-54.27349
2018-04-30 07:00:00+00:00,14.0,17.0,5.31,6.26,,47.59359,-54.27349
2018-04-30 07:10:00+00:00,9.0,0.0,6.86,8.19,,47.59359,-54.27349
2018-04-30 07:20:00+00:00,3.0,3.0,6.56,6.85,,47.59359,-54.27349
2018-04-30 07:30:00+00:00,8.0,4.0,5.27,5.69,,47.59359,-54.27349
2018-04-30 07:40:00+00:00,16.0,9.0,5.27,6.22,,47.59359,-54.27349
2018-04-30 07:50:00+00:00,29.0,32.0,5.53,6.58,,47.59359,-54.27349
2018-04-30 08:00:00+00:00,34.0,29.0,5.63,6.68,,47.59359,-54.27349
2018-04-30 08:10:00+00:00,32.0,27.0,5.73,6.52,,47.59359,-54.27349
2018-04-30 08:20:00+00:00,27.0,25.0,5.7,6.76,,47.59359,-54.27349
2018-04-30 08:30:00+00:00,66.0,65.0,3.16,3.6,,47.59359,-54.27349
2018-04-30 08:40:00+00:00,32.0,31.0,6.03,6.89,,47.59359,-54.27349
2018-04-30 08:50:00+00:00,13.0,14.0,8.13,8.76,,47.59359,-54.27349
2018-04-30 09:00:00+00:00,3.0,8.0,9.73,10.12,,47.59359,-54.27349
2018-04-30 09:10:00+00:00,9.0,7.0,9.14,10.04,,47.59359,-54.27349
2018-04-30 09:20:00+00:00,23.0,12.0,7.87,9.08,,47.59359,-54.27349
2018-04-30 09:30:00+00:00,30.0,34.0,6.06,6.6,,47.59359,-54.27349
2018-04-30 09:40:00+00:00,19.0,16.0,5.58,6.53,,47.59359,-54.27349
2018-04-30 09:50:00+00:00,13.0,23.0,5.86,6.84,,47.59359,-54.27349
2018-04-30 10:00:00+00:00,17.0,17.0,6.96,7.69,,47.59359,-54.27349
2018-04-30 10:10:00+00:00,38.0,38.0,5.6,6.15,,47.59359,-54.27349
2018-04-30 10:20:00+00:00,33.0,35.0,4.92,5.37,,47.59359,-54.27349
2018-04-30 10:30:00+00:00,13.0,11.0,5.09,5.66,,47.59359,-54.27349
2018-04-30 10:40:00+00:00,22.0,35.0,5.88,8.68,,47.59359,-54.27349
2018-04-30 10:50:00+00:00,19.0,14.0,7.39,8.17,,47.59359,-54.27349
2018-04-30 11:00:00+00:00,22.0,18.0,5.69,6.68,,47.59359,-54.27349
2018-04-30 11:10:00+00:00,13.0,14.0,6.38,6.7,,47.59359,-54.27349
2018-04-30 11:20:00+00:00,5.0,3.0,8.38,9.14,,47.59359,-54.27349
2018-04-30 11:30:00+00:00,27.0,30.0,4.24,5.43,,47.59359,-54.27349
2018-04-30 11:40:00+00:00,72.0,74.0,2.81,3.59,,47.59359,-54.27349
2018-04-30 11:50:00+00:00,37.0,36.0,4.91,5.44,,47.59359,-54.27349
2018-04-30 12:00:00+00:00,35.0,35.0,4.94,5.34,,47.59359,-54.27349
2018-04-30 12:10:00+00:00,22.0,29.0,3.44,4.16,,47.59359,-54.27349
2018-04-30 12:20:00+00:00,100.0,108.0,0.79,1.18,,47.59359,-54.27349
2018-04-30 12:30:00+00:00,63.0,71.0,1.59,1.9,,47.59359,-54.27349
2018-04-30 12:40:00+00:00,74.0,76.0,3.34,3.57,,47.59359,-54.27349
2018-04-30 12:50:00+00:00,51.0,46.0,3.42,3.59,,47.59359,-54.27349
2018-04-30 13:00:00+00:00,92.0,90.0,2.98,3.81,,47.59359,-54.27349
2018-04-30 13:10:00+00:00,79.0,77.0,4.1,4.62,,47.59359,-54.27349
2018-04-30 13:20:00+00:00,69.0,67.0,4.36,4.65,,47.59359,-54.27349
2018-04-30 13:30:00+00:00,83.0,85.0,4.78,5.25,,47.59359,-54.27349
2018-04-30 13:40:00+00:00,84.0,86.0,5.51,5.99,,47.59359,-54.27349
2018-04-30 13:50:00+00:00,75.0,74.0,5.69,6.33,,47.59359,-54.27349
2018-04-30 14:00:00+00:00,87.0,85.0,4.71,5.7,,47.59359,-54.27349
2018-04-30 14:10:00+00:00,88.0,102.0,4.68,6.38,,47.59359,-54.27349
2018-04-30 14:20:00+00:00,79.0,83.0,5.9,6.74,,47.59359,-54.27349
2018-04-30 14:30:00+00:00,90.0,85.0,5.39,6.95,,47.59359,-54.27349
2018-04-30 14:40:00+00:00,85.0,83.0,6.08,6.71,,47.59359,-54.27349
2018-04-30 14:50:00+00:00,91.0,79.0,5.32,7.16,,47.59359,-54.27349
2018-04-30 15:00:00+00:00,87.0,85.0,5.51,6.78,,47.59359,-54.27349
2018-04-30 15:10:00+00:00,85.0,84.0,6.68,6.95,,47.59359,-54.27349
2018-04-30 15:20:00+00:00,85.0,83.0,6.21,7.32,,47.59359,-54.27349
2018-04-30 15:30:00+00:00,83.0,84.0,6.19,6.69,,47.59359,-54.27349
2018-04-30 15:40:00+00:00,84.0,84.0,6.89,7.36,,47.59359,-54.27349
2018-04-30 15:50:00+00:00,81.0,81.0,6.86,7.35,,47.59359,-54.27349
2018-04-30 16:00:00+00:00,84.0,81.0,6.62,7.19,,47.59359,-54.27349
2018-04-30 16:10:00+00:00,87.0,91.0,6.78,7.36,,47.59359,-54.27349
2018-04-30 16:20:00+00:00,84.0,86.0,6.16,7.56,,47.59359,-54.27349
2018-04-30 16:30:00+00:00,89.0,90.0,4.78,6.59,,47.59359,-54.27349
2018-04-30 16:40:00+00:00,86.0,85.0,6.48,7.27,,47.59359,-54.27349
2018-04-30 16:50:00+00:00,84.0,85.0,7.39,7.78,,47.59359,-54.27349
2018-04-30 17:00:00+00:00,98.0,101.0,4.83,6.78,,47.59359,-54.27349
2018-04-30 17:10:00+00:00,109.0,133.0,3.81,6.06,,47.59359,-54.27349
2018-04-30 17:20:00+00:00,101.0,130.0,3.59,6.75,,47.59359,-54.27349
2018-04-30 17:30:00+00:00,124.0,124.0,3.49,6.7,,47.59359,-54.27349
2018-04-30 17:40:00+00:00,112.0,81.0,3.64,5.67,,47.59359,-54.27349
2018-04-30 17:50:00+00:00,102.0,107.0,4.12,6.94,,47.59359,-54.27349
2018-04-30 18:00:00+00:00,92.0,86.0,4.18,6.35,,47.59359,-54.27349
2018-04-30 18:10:00+00:00,108.0,98.0,4.14,6.41,,47.59359,-54.27349
2018-04-30 18:20:00+00:00,102.0,122.0,3.18,5.68,,47.59359,-54.27349
2018-04-30 18:30:00+00:00,95.0,140.0,3.78,5.36,,47.59359,-54.27349
2018-04-30 18:40:00+00:00,105.0,105.0,3.33,5.23,,47.59359,-54.27349
2018-04-30 18:50:00+00:00,113.0,114.0,3.67,5.4,,47.59359,-54.27349
2018-04-30 19:00:00+00:00,93.0,92.0,2.72,3.85,,47.59359,-54.27349
2018-04-30 19:10:00+00:00,98.0,97.0,2.53,5.02,,47.59359,-54.27349
2018-04-30 19:20:00+00:00,107.0,121.0,3.58,6.3,,47.59359,-54.27349
2018-04-30 19:30:00+00:00,85.0,73.0,2.86,4.23,,47.59359,-54.27349
2018-04-30 19:40:00+00:00,81.0,85.0,3.7,4.77,,47.59359,-54.27349
2018-04-30 19:50:00+00:00,94.0,106.0,3.47,5.36,,47.59359,-54.27349
2018-04-30 20:00:00+00:00,90.0,88.0,2.98,4.43,,47.59359,-54.27349
2018-04-30 20:10:00+00:00,64.0,73.0,2.61,3.71,,47.59359,-54.27349
2018-04-30 20:20:00+00:00,104.0,107.0,1.86,2.79,,47.59359,-54.27349
2018-04-30 20:30:00+00:00,79.0,88.0,1.78,3.23,,47.59359,-54.27349
2018-04-30 20:40:00+00:00,60.0,62.0,2.68,3.24,,47.59359,-54.27349
2018-04-30 20:50:00+00:00,88.0,83.0,2.95,4.3,,47.59359,-54.27349
2018-04-30 21:00:00+00:00,101.0,100.0,1.86,3.09,,47.59359,-54.27349
2018-04-30 21:10:00+00:00,100.0,118.0,2.99,4.2,,47.59359,-54.27349
2018-04-30 21:20:00+00:00,97.0,77.0,3.14,5.07,,47.59359,-54.27349
2018-04-30 21:30:00+00:00,95.0,94.0,3.5,5.18,,47.59359,-54.27349
2018-04-30 21:40:00+00:00,95.0,95.0,3.84,5.96,,47.59359,-54.27349
2018-04-30 21:50:00+00:00,93.0,94.0,3.93,5.26,,47.59359,-54.27349
2018-04-30 22:00:00+00:00,98.0,95.0,2.82,3.61,,47.59359,-54.27349
2018-04-30 22:10:00+00:00,81.0,87.0,3.95,4.65,,47.59359,-54.27349
2018-04-30 22:20:00+00:00,78.0,80.0,3.52,3.9,,47.59359,-54.27349
2018-04-30 22:30:00+00:00,76.0,75.0,4.33,4.94,,47.59359,-54.27349
2018-04-30 22:40:00+00:00,78.0,72.0,3.38,4.07,,47.59359,-54.27349
2018-04-30 22:50:00+00:00,74.0,74.0,3.81,4.03,,47.59359,-54.27349
2018-04-30 23:00:00+00:00,68.0,73.0,4.62,5.01,,47.59359,-54.27349
2018-04-30 23:10:00+00:00,77.0,76.0,3.6,4.06,,47.59359,-54.27349
2018-04-30 23:20:00+00:00,76.0,76.0,3.43,3.81,,47.59359,-54.27349
2018-04-30 23:30:00+00:00,72.0,70.0,3.56,3.97,,47.59359,-54.27349
2018-04-30 23:40:00+00:00,75.0,73.0,3.77,4.28,,47.59359,-54.27349
2018-04-30 23:50:00+00:00,81.0,80.0,2.75,3.04,,47.59359,-54.27349
